Flag for Canada Weather past 2 weeks in Laval, Quebec, Canada

Now
68 °F

Passing clouds.


Feels Like: 68 °F
Forecast: 69 / 83 °F
Wind: 2 mph from Southwest

Location: Montreal / Mirabel

Current Time: Jul 30, 2015 at 3:09:23 AM

Latest Report: Jul 30, 2015 at 2:00 AM


Visibility: 25 mi

Pressure: 29.81 "Hg

Humidity: 88%

Dew point: 64 °F

Location of LavalLocation

Historic Weather in Laval — Graph

°F

Laval temperature yesterday

Maximum temperature yesterday: 88 °F (at 4:00 PM)
Minimum temperature yesterday: 70 °F (at 4:00 AM)
Average temperature yesterday: 78 °F

Past Weeks' High & Low Weather Summary

 TemperatureHumidityPressure
High88 °F (Jul 29, 4:00 PM)100% (Jul 17, 12:00 AM)30.15 "Hg (Jul 17, 12:00 AM)
Low46 °F (Jul 16, 3:00 AM)41% (Jul 15, 4:00 PM)29.50 "Hg (Jul 21, 2:50 PM)
Average68 °F81%29.86 "Hg
* Reported Jul 15 2:00 AM — Jul 30 2:00 AM, Laval, Weather by CustomWeather, © 2015

Note: Actual official high and low records may vary slightly from our data, if they occured in-between our weather recording intervals... More about our weather records

Advertising

Laval weather history for previous 24 hours

 ConditionsComfort  
Time TempWeatherWind HumidityBarometerVisibility
2:00 AM
Thu, Jul 30
68 °FPassing clouds.2 mph88%29.81 "Hg25 mi
1:00 AM68 °FPassing clouds.2 mph94%29.83 "Hg25 mi
12:00 AM68 °FPassing clouds.No wind100%29.83 "Hg25 mi
11:00 PM
Wed, Jul 29
72 °FPassing clouds.3 mph83%29.84 "Hg25 mi
10:00 PM77 °FPassing clouds.2 mph69%29.85 "Hg25 mi
9:00 PM79 °FPassing clouds.3 mph74%29.84 "Hg25 mi
8:00 PM81 °FPassing clouds.5 mph84%29.84 "Hg25 mi
7:00 PM86 °FPassing clouds.3 mph70%29.84 "Hg25 mi
6:00 PM88 °FPassing clouds.7 mph62%29.85 "Hg25 mi
5:00 PM88 °FScattered clouds.6 mph62%29.86 "Hg25 mi
4:00 PM88 °FScattered clouds.9 mph66%29.88 "Hg25 mi
3:00 PM86 °FBroken clouds.9 mph66%29.88 "Hg25 mi
2:00 PM84 °FScattered clouds.7 mph70%29.89 "Hg25 mi
1:00 PM82 °FBroken clouds.5 mph74%29.91 "Hg25 mi
12:00 PM81 °FBroken clouds.6 mph79%29.93 "Hg25 mi
11:00 AM79 °FPartly sunny.5 mph79%29.94 "Hg25 mi
10:00 AM77 °FBroken clouds.5 mph83%29.94 "Hg15 mi
9:00 AM73 °FPartly sunny.7 mph89%29.94 "Hg15 mi
8:00 AM72 °FBroken clouds.6 mph88%29.94 "Hg15 mi
7:00 AM70 °FBroken clouds.5 mph94%29.93 "Hg10 mi
6:00 AM70 °FPartly cloudy.5 mph94%29.94 "Hg15 mi
5:00 AM70 °FPartly cloudy.3 mph94%29.93 "Hg25 mi
4:00 AM70 °FPassing clouds.2 mph94%29.93 "Hg25 mi
3:00 AM72 °FPassing clouds.2 mph94%29.93 "Hg25 mi
Weather by CustomWeather, © 2015

See weather overviewHow to use our weather pages